Starlink 34154

operational
NORAD ID: 63995 Int'l Des: 2025-101 Owner: SPXS Country: US Constellation: starlink
LEOCIRCULAR

About Starlink 34154

Description loading...

Live Position

Loading 3D Globe...

Upcoming Passes

Altitude History

Altitude vs Time

uPlot chart will show altitude changes over time

Two-Line Element Set

1 63995U 25101B 26022.38163873 .00024719 00000-0 90486-3 0 9995
2 63995 43.0045 259.4400 0001692 236.8654 123.2036 15.27577141 39971
Epoch: Jan 22, 2026 • Age: 20 hours

Current Status

Altitude 494.4 km
Velocity 7.62 km/s
Sub-Earth Point -41.25°S, 55.05°W
Launch Date May 14, 2025
Age 0.6 years
Type internet

Technical Details

Classification Payload
Mass 575.00 kg
Dry Mass 530.00 kg
Total Mass 575.00 kg
Length 0.30 m
Diameter 4.10 m
Span 29.00 m
Shape Box + pan
Manufacturer SPXS
Bus Type Starlink V2MO
Phase Status In Orbit
Owner/State SPXS/US

Large Constellations

Loading constellations...